Regional Weather Roundup
Issued by NWS Northern Indiana

Home | Current Version | Previous Version | Graphics & Text | Print | Product List | Glossary On
Versions: 1 2 3 4 5 6 7 8 9 10 11 12 13 14 15 16 17 18 19 20 21 22 23 24 25 26 27 28 29 30 31 32 33 34 35 36 37 38 39 40 41 42 43 44 45 46 47 48 49 50
689
ASUS43 KIWX 171010
RWRIWX

KIWX WEATHER ROUNDUP
NATIONAL WEATHER SERVICE NORTHERN INDIANA
500 AM EST FRI NOV 17 2017

NOTE: "FAIR" INDICATES FEW OR NO CLOUDS BELOW 12,000 FEET WITH NO
SIGNIFICANT WEATHER AND/OR OBSTRUCTIONS TO VISIBILITY.

* THESE STATIONS ARE NOT UNDER NWS QUALITY CONTROL. THEY ALSO MAY NOT
  REPORT WEATHER SUCH AS PRECIPITATION OR FOG.

INZ001>027-171100-
NORTHERN INDIANA

CITY           SKY/WX    TMP DP  RH WIND       PRES   REMARKS
VALPARAISO     CLOUDY    37  31  78 SE6       30.20F
MICHIGAN CITY* CLOUDY    34  30  86 S6        30.21F WCI  29
LAPORTE*       CLOUDY    35  30  83 SE7       30.20F WCI  29
KNOX*          CLOUDY    36  32  87 S6        30.20F
SOUTH BEND     CLOUDY    35  31  85 S8        30.21F WCI  29
GOSHEN         CLOUDY    36  28  73 SE6       30.21F
MONTICELLO*    CLOUDY    36  31  82 SE6       30.20R
LOGANSPORT*    CLOUDY    34  32  93 SE7       30.21F WCI  28
ROCHESTER*     CLOUDY    37  32  81 SE9       30.21F
WARSAW*        CLOUDY    34  30  86 CALM      30.22S
AUBURN*        CLOUDY    36  30  80 S3        30.24R
FORT WAYNE     CLOUDY    37  31  78 S8        30.23S
HUNTINGTON*    CLOUDY    35  30  81 S6        30.22S WCI  30
PERU/GRISSOM   CLOUDY    36  32  86 SE10      30.20F
MARION*        CLOUDY    35  30  84 SE8       30.22F HAZE    WCI  28

$$
INZ028>050-171100-
CENTRAL INDIANA

CITY           SKY/WX    TMP DP  RH WIND       PRES   REMARKS
LAFAYETTE      CLOUDY    30  28  92 SE5       30.20F WCI  25
KOKOMO*        CLOUDY    36  31  82 SE9       30.21F
MUNCIE*        CLOUDY    37  30  75 SE6       30.23R
INDIANAPOLIS   CLOUDY    35  29  78 SE9       30.21S WCI  28

$$
MIZ043>046-050>051-056>058-064>065-071>073-077>080-171100-
SOUTHWEST LOWER MICHIGAN

CITY           SKY/WX    TMP DP  RH WIND       PRES   REMARKS
BATTLE CREEK   CLOUDY    32  28  85 CALM      30.23S
BENTON HARBOR  CLOUDY    37  30  75 SE8       30.19F
COLDWATER*     CLOUDY    32  30  94 CALM      30.23R
HILLSDALE*     CLOUDY    28  27  93 CALM      30.21S
HOLLAND        CLOUDY    33  29  85 E9        30.20F WCI  25
GRAND RAPIDS   CLOUDY    30  29  96 SE3       30.23S
KALAMAZOO      CLOUDY    36  28  73 S6        30.22F
STURGIS*       CLOUDY    34  30  86 SE6       30.21S WCI  29
THREE RIVERS*  CLOUDY    37  31  81 S6        30.23S

$$
OHZ001>008-015>018-024>025-171100-
NORTHWEST OHIO

CITY           SKY/WX    TMP DP  RH WIND       PRES   REMARKS
WAUSEON*       CLOUDY    36  32  87 CALM      30.24R
DEFIANCE       CLOUDY    30  26  85 CALM      30.24S
FINDLAY        CLOUDY    32  26  78 SE3       30.23S
TOLEDO EXPRESS CLOUDY    35  32  88 SW3       30.25R
TOLEDO METCALF CLOUDY    36  30  79 CALM      30.25S
LIMA           MOCLDY    33  28  81 SE7       30.22F WCI  27

$$
AND FOR LAKE MICHIGAN COASTAL AND OPEN LAKE BUOY OBSERVATIONS

STATION/POSITION TEMP    WIND        PRES    VSBY  WAVE
                 AIR SEA DIR/SP/G                  HT/PER
                 (F)     (DEG/KT/KT) (MB)    (MI)  (FT/S)
CALUMET HARBOR    36     150/ 11/ 13 1021.4F
MICHIGAN CITY     35     140/  6/  7   N/A
BURNS HARBOR      37     200/ 10/ 12 1023.4S
SAINT JOSEPH      36      CALM  /  7 1022.4
SOUTH LAKE BUOY   42 50  140/ 10/ 14 1022.8          2/ 6

$$
&&




USA.gov is the U.S. government's official web portal to all federal, state and local government web resources and services.